Regional Weather Roundup
Issued by NWS

Home | Current Version | Previous Version | Text Only | Print | Product List | Glossary Off
Versions: 1 2 3 4 5 6 7 8 9 10 11 12 13 14 15 16 17 18 19 20 21 22 23 24 25 26 27 28 29 30 31 32 33 34 35 36 37 38 39 40 41 42 43 44 45 46 47 48 49 50

000
ASUS44 KMEG 252010
RWRTN
TENNESSEE HOURLY STATE WEATHER ROUNDUP
NATIONAL WEATHER SERVICE MEMPHIS TN
300 PM CDT SAT OCT 25 2014

TNZ002-004-019-021-049-052-054-088>092-252100-
WEST TENNESSEE

CITY           SKY/WX    TMP DP  RH WIND       PRES   REMARKS
MEMPHIS INTL   MOSUNNY   81  62  52 SW7       30.03F
NWS MEMPHIS      N/A     80 N/A N/A MISG        N/A
JACKSON        SUNNY     80  62  54 W7        30.02F
DYERSBURG      SUNNY     81  57  44 SW9       30.02F
UNION CITY     SUNNY     79  63  57 W7        30.00S
PARIS          SUNNY     77  63  61 VRB3      30.01F
HUNTINGDON     MOSUNNY   78  63  60 W6        30.00F
LEXINGTON      SUNNY     81  63  54 SW9       30.00F
SAVANNAH       PTSUNNY   81  64  57 W9        30.02F
$$

TNZ008-025-027-028-033-062-065-066-252100-
NORTH MIDDLE TENNESSEE

CITY           SKY/WX    TMP DP  RH WIND       PRES   REMARKS
NASHVILLE      MOSUNNY   80  61  52 W7        30.00F
CLARKSVILLE    SUNNY     78  62  57 W10       29.99F
SMYRNA         MOSUNNY   79  61  53 NW10      30.00F
COOKEVILLE     CLOUDY    72  57  60 SW5       30.02S
CROSSVILLE     CLOUDY    67  54  63 NW5       30.06S
$$

TNZ061-075-076-078-094-096-097-252100-
SOUTH MIDDLE TENNESSEE

CITY           SKY/WX    TMP DP  RH WIND       PRES   REMARKS
FAYETTEVILLE   MOSUNNY   73  57  56 SW9       30.03F
TULLAHOMA      SUNNY     75  57  53 W7        30.04S
WINCHESTER     MOSUNNY   73  57  56 VRB3      30.03F
MCMINNVILLE    PTSUNNY   73  61  64 CALM      30.02F
COLUMBIA       MOSUNNY   81  64  57 W8        30.00S
SHELBYVILLE    SUNNY     79  63  57 VRB5      30.03F
$$

TNZ017-018-042-046-047-252100-
NORTHEAST TENNESSEE

CITY           SKY/WX    TMP DP  RH WIND       PRES   REMARKS
TRI CITIES     MOSUNNY   67  47  48 W7        30.01F
ELIZABETHTON   CLEAR     66  46  48 W8        30.01S
$$

TNZ012-013-036-069-073-074-252100-
CENTRAL EAST TENNESSEE

CITY           SKY/WX    TMP DP  RH WIND       PRES   REMARKS
KNOXVILLE      MOSUNNY   69  48  47 W5        30.02F
OAK RIDGE      PTSUNNY   72  49  44 VRB5      30.03F
GATLINBURG     MOCLDY    70  45  40 NW5       30.01F
MORRISTOWN     CLEAR     70  48  46 W6        30.03S
$$

TNZ083-085-099-252100-
SOUTHEAST TENNESSEE

CITY           SKY/WX    TMP DP  RH WIND       PRES   REMARKS
CHATTANOOGA    MOSUNNY   74  51  44 E7        30.01F
$$

SKY/WX REPORTED AS FAIR MEANS FEW OR NO CLOUDS BELOW
12 THOUSAND FEET.




USA.gov is the U.S. government's official web portal to all federal, state and local government web resources and services.